User: anonymous   Login
Location: Unspecified
(0.0000°N, 0.0000°E)
Time: 09:04:02
(UTC+00:00)
Language:

KOMPSAT-2 - Orbit

View from above orbital plane
View from above orbital plane
View from above satellite
View from above satellite

Ground track
Ground track

The orbit data is extracted from the following two-line orbital elements,

1 29268U 06031A   18018.58650849 +.00000103 +00000-0 +29508-4 0  9992
2 29268 098.0829 278.3729 0019222 051.0075 309.2841 14.62325167612471
Epoch (UTC): 18 January 2018 14:04:34
Eccentricity: 0.0019222
inclination: 98.0829°
perigee height: 672 km
apogee height: 699 km
right ascension of ascending node: 278.3729°
argument of perigee: 51.0075°
revolutions per day: 14.62325167
mean anomaly at epoch: 309.2841°
orbit number at epoch: 61247

The dashed part of the orbit path shows where the satellite is in the earth's shadow,  

DLR